AirNav   Pilot Hours Calculator
 
 1020 users online  

NC37 Mountain View Aerodrome
Reidsville, North Carolina, USA

GOING TO REIDSVILLE?


FAA INFORMATION EFFECTIVE 27 JANUARY 2022

Location

FAA Identifier: NC37
Lat/Long: 36-20-24.4910N 079-50-28.1290W
36-20.408183N 079-50.468817W
36.3401364,-79.8411469
(estimated)
Elevation: 800 ft. / 244 m (estimated)
Variation: 06W (1985)
From city: 12 miles W of REIDSVILLE, NC
Time zone: UTC -5 (UTC -4 during Daylight Saving Time)
Zip code: 27320

Airport Operations

Airport use: Private use. Permission required prior to landing
Activation date: 11/1988
Control tower: no
ARTCC: ATLANTA CENTER
FSS: RALEIGH FLIGHT SERVICE STATION
Attendance: CONTINUOUS
Wind indicator: no
Segmented circle: no

Airport Communications

WX AWOS-3 at SIF (6 nm N): 119.775 (336-573-3677)
WX ASOS at GSO (15 nm S): 128.55 (336-393-0168)
WX AWOS-3 at MTV (19 nm NW): 118.45 (276-957-3784)

Nearby radio navigation aids

VOR radial/distance  VOR name  Freq  Var
GSOr023/18.8GREENSBORO VORTAC116.2003W
DANr247/(27.9)DANVILLE VOR113.1006W
LIBr344/33.6LIBERTY VORTAC113.0003W

 
NDB name  Hdg/Dist  Freq  Var  ID
SLAMMER244/4.542307WSIF ... .. ..-.
PERSON288/38.022008WHUR .... ..- .-.

Airport Services

Runway Information

Runway 12/30

Dimensions: 2000 x 50 ft. / 610 x 15 m
Surface: turf
RUNWAY 12  RUNWAY 30
Traffic pattern: leftleft
Obstructions: nonepline

Airport Ownership and Management from official FAA records

Ownership: Privately-owned
Owner: W.N. & E.C. HESTER
1102 GREEN ST.
REIDSVILLE, NC 27320
Phone 336-342-5322
Manager: W.N. & E.C. HESTER
1102 GREEN ST.
REIDSVILLE, NC 27320
Phone 336-342-5322

Airport Operational Statistics

Aircraft based on the field: 1
Single engine airplanes: 1
    

Additional Remarks

FOR CD CTC ATLANTA ARTCC AT 770-210-7692.

Instrument Procedures

There are no published instrument procedures at NC37.

Some nearby airports with instrument procedures:

KSIF - Rockingham County NC Shiloh Airport (6 nm N)
N63 - Meadow Brook Field Airport (15 nm W)
KGSO - Piedmont Triad International Airport (15 nm S)
KMTV - Blue Ridge Airport (19 nm NW)
KINT - Smith Reynolds Airport (22 nm SW)
 
Loc | Ops | Rwys | IFR | FBO | Links
Com | Nav | Svcs | Stats | Notes
Area around NC37 (Mountain View Aerodrome)
 
Road maps at: MapQuest Bing Google
 
Aerial photo
No photo
 
Sectional chart

 
Airport distance calculator
Flying to Mountain View Aerodrome? Find the distance to fly.

From to NC37

Sunrise and sunset
Times for 29-Jan-2022
 Local
(UTC-5)
 Zulu
(UTC)
Morning civil twilight06:5711:57
Sunrise07:2412:24
Sunset17:4122:41
Evening civil twilight18:0823:08

Current date and time
Zulu (UTC)  29-Jan-2022 07:53:55
Local (UTC-5)  29-Jan-2022 02:53:55
 
METAR
KSIF 
6nm N 
290735Z AUTO 36006G16KT 7SM -SN BKN023 BKN033 OVC041 00/M02 A2983 RMK AO2 T10011020
KGSO 
15nm S 
290740Z 34009G17KT 3/4SM R05R/6000VP6000FT -SN BR BKN006 OVC014 M01/M02 A2980 RMK AO2 P0002 T10111022
KMTV 
19nm NW 
290735Z AUTO 35005KT 7SM -SN SCT014 BKN048 OVC060 M01/M02 A2985 RMK AO2 T10101016
TAF
KGSO 
15nm S 
290554Z 2906/3006 35008KT 6SM -SN BR SCT006 BKN040 OVC070 TEMPO 2906/2907 35010G18KT 1SM -SN OVC006 FM290700 34010KT 6SM BR SCT006 BKN035 OVC060 TEMPO 2907/2910 34012G30KT 4SM -SN OVC006 FM291000 34015G30KT P6SM BKN045 OVC100 FM291700 34015G25KT P6SM SCT250 FM300200 30006KT P6SM SKC
NOTAMs
Click for the latest NOTAMs
NOTAMs are issued by the DoD/FAA and will open in a separate window not controlled by AirNav.

 

 
 

Would you like to see your business listed on this page?

 If your business provides an interesting product or service to pilots, flight crews, aircraft, or users of the Mountain View Aerodrome, you should consider listing it here.  To start the listing process, click on the button below
 
Add a business
 

Other Pages about Mountain View Aerodrome

Update a link
 
Copyright © AirNav, LLC. All rights reserved. Privacy Policy  Contact